Location: Asheville, NC
(35.6000°N, 82.5500°W)
Time: 01:30:28
(UTC-05:00)

Tiangong 2 - Pass Details

Date: 09 February 2018
Orbit: 384 x 389 km, 42.8° (Epoch: 23 February)

Event Time Altitude Azimuth Distance (km) Brightness Sun altitude
Rises 19:26:41 0° 233° (SW) 2,247 6.0 -16.8°
Reaches altitude 10° 19:28:46 10° 229° (SW) 1,396 4.7 -17.2°
Maximum altitude 19:31:52 57° 150° (SSE) 456 1.2 -17.9°
Enters shadow 19:32:01 56° 134° (SE) 461 1.1 -17.9°
